Donnie Sonier — WDF9285 — position and weather

sailwx.info

Track history (hours):
 
Tides and Currents Weather Stations Pressure Air Temp Water Temp Dewpoint Dewpoint Depression Visibility Wind Speed Wind Dir Waves Ship Positions

Donnie Sonier

Owner: LeBeouf Bros. Towing, LLC, Houma, LA. More information available from US FCC via Universal Licensing System and Coast Guard Vessel Documentation Center.

Last reported at 2014-Nov-23 22:31 UTC. Time now 2014-Nov-27 23:11 UTC.
Position N 29°26' W 094°43'.

Length 22 m.

Type: Tug. MMSI: 367503580.

Date/timePositionNaut miles runAvg speedWind from/ knotsBaromVisibWave heightAir tempDewpointWater temp
2014-Nov-23 22:31N 29°26' W 094°43'3 3.3
2014-Nov-23 21:34N 29°28' W 094°40'  
2014-Nov-19 14:30N 29°30' W 094°52'7 7.1
2014-Nov-19 13:34N 29°36' W 094°57'7 6.7
2014-Nov-19 12:33N 29°42' W 094°60'6 6.0
2014-Nov-19 11:31N 29°46' W 095°05'1 0.7
2014-Nov-19 09:32N 29°45' W 095°06'1 0.1
2014-Nov-19 02:30N 29°46' W 095°07'0 0.0
2014-Nov-18 23:32N 29°46' W 095°07'0 0.0
2014-Nov-18 22:32N 29°46' W 095°07'0 0.0
2014-Nov-18 21:34N 29°46' W 095°07'0 0.0
2014-Nov-18 20:33N 29°46' W 095°07'0 0.0
2014-Nov-18 19:30N 29°46' W 095°07'0 0.0
2014-Nov-18 18:32N 29°46' W 095°07'1 0.3
2014-Nov-18 14:33N 29°45' W 095°06'1 1.0
2014-Nov-18 13:32N 29°46' W 095°07'1 0.7
2014-Nov-18 12:11N 29°45' W 095°06'0 0.2
2014-Nov-18 11:33N 29°45' W 095°06'0 0.0
2014-Nov-18 10:33N 29°45' W 095°06'0 0.0
2014-Nov-18 09:33N 29°45' W 095°06'0 0.0
2014-Nov-18 08:34N 29°45' W 095°06'0 0.0
2014-Nov-18 07:33N 29°45' W 095°06'0 0.0
2014-Nov-18 06:33N 29°45' W 095°06'0 0.0
2014-Nov-18 05:33N 29°45' W 095°06'0 0.0
2014-Nov-18 04:33N 29°45' W 095°06'0 0.0
2014-Nov-18 03:33N 29°45' W 095°06'0 0.0
2014-Nov-18 02:34N 29°45' W 095°06'0 0.0
2014-Nov-18 01:34N 29°45' W 095°06'0 0.0
2014-Nov-18 00:31N 29°45' W 095°06'0 0.0
2014-Nov-17 23:33N 29°45' W 095°06'0 0.0
2014-Nov-17 22:34N 29°45' W 095°06'0 0.0
2014-Nov-17 21:34N 29°45' W 095°06'0 0.0
2014-Nov-17 20:33N 29°45' W 095°06'0 0.0
2014-Nov-17 19:33N 29°45' W 095°06'2 1.9
2014-Nov-17 18:32N 29°46' W 095°05'1 1.0
2014-Nov-17 17:33N 29°47' W 095°04'3 0.2
2014-Nov-17 01:17N 29°44' W 095°03'4 5.1
2014-Nov-17 00:34N 29°42' W 094°59'7 6.6
2014-Nov-16 23:30N 29°35' W 094°56'6 6.8
2014-Nov-16 22:34N 29°30' W 094°52'  
2014-Nov-14 04:24N 29°33' W 094°54'5 6.1
2014-Nov-14 03:33N 29°37' W 094°57'6 6.4
2014-Nov-14 02:33N 29°42' W 095°01'5 4.1
2014-Nov-14 01:12N 29°47' W 095°04'2 2.7
2014-Nov-14 00:30N 29°46' W 095°05'  
Track history (hours):
 
Tides and Currents Weather Stations Pressure Air Temp Water Temp Dewpoint Dewpoint Depression Visibility Wind Speed Wind Dir Waves Ship Positions

Donnie Sonier

Owner: LeBeouf Bros. Towing, LLC, Houma, LA. More information available from US FCC via Universal Licensing System and Coast Guard Vessel Documentation Center.

Last reported at 2014-Nov-23 22:31 UTC. Time now 2014-Nov-27 23:11 UTC.
Position N 29°26' W 094°43'.

Length 22 m.

Type: Tug. MMSI: 367503580.

Date/timePositionNaut miles runAvg speedWind from/ knotsBaromVisibWave heightAir tempDewpointWater temp
2014-Nov-23 22:31N 29°26' W 094°43'3 3.3
2014-Nov-23 21:34N 29°28' W 094°40'  
2014-Nov-19 14:30N 29°30' W 094°52'7 7.1
2014-Nov-19 13:34N 29°36' W 094°57'7 6.7
2014-Nov-19 12:33N 29°42' W 094°60'6 6.0
2014-Nov-19 11:31N 29°46' W 095°05'1 0.7
2014-Nov-19 09:32N 29°45' W 095°06'1 0.1
2014-Nov-19 02:30N 29°46' W 095°07'0 0.0
2014-Nov-18 23:32N 29°46' W 095°07'0 0.0
2014-Nov-18 22:32N 29°46' W 095°07'0 0.0
2014-Nov-18 21:34N 29°46' W 095°07'0 0.0
2014-Nov-18 20:33N 29°46' W 095°07'0 0.0
2014-Nov-18 19:30N 29°46' W 095°07'0 0.0
2014-Nov-18 18:32N 29°46' W 095°07'1 0.3
2014-Nov-18 14:33N 29°45' W 095°06'1 1.0
2014-Nov-18 13:32N 29°46' W 095°07'1 0.7
2014-Nov-18 12:11N 29°45' W 095°06'0 0.2
2014-Nov-18 11:33N 29°45' W 095°06'0 0.0
2014-Nov-18 10:33N 29°45' W 095°06'0 0.0
2014-Nov-18 09:33N 29°45' W 095°06'0 0.0
2014-Nov-18 08:34N 29°45' W 095°06'0 0.0
2014-Nov-18 07:33N 29°45' W 095°06'0 0.0
2014-Nov-18 06:33N 29°45' W 095°06'0 0.0
2014-Nov-18 05:33N 29°45' W 095°06'0 0.0
2014-Nov-18 04:33N 29°45' W 095°06'0 0.0
2014-Nov-18 03:33N 29°45' W 095°06'0 0.0
2014-Nov-18 02:34N 29°45' W 095°06'0 0.0
2014-Nov-18 01:34N 29°45' W 095°06'0 0.0
2014-Nov-18 00:31N 29°45' W 095°06'0 0.0
2014-Nov-17 23:33N 29°45' W 095°06'0 0.0
2014-Nov-17 22:34N 29°45' W 095°06'0 0.0
2014-Nov-17 21:34N 29°45' W 095°06'0 0.0
2014-Nov-17 20:33N 29°45' W 095°06'0 0.0
2014-Nov-17 19:33N 29°45' W 095°06'2 1.9
2014-Nov-17 18:32N 29°46' W 095°05'1 1.0
2014-Nov-17 17:33N 29°47' W 095°04'3 0.2
2014-Nov-17 01:17N 29°44' W 095°03'4 5.1
2014-Nov-17 00:34N 29°42' W 094°59'7 6.6
2014-Nov-16 23:30N 29°35' W 094°56'6 6.8
2014-Nov-16 22:34N 29°30' W 094°52'  
2014-Nov-14 04:24N 29°33' W 094°54'5 6.1
2014-Nov-14 03:33N 29°37' W 094°57'6 6.4
2014-Nov-14 02:33N 29°42' W 095°01'5 4.1
2014-Nov-14 01:12N 29°47' W 095°04'2 2.7
2014-Nov-14 00:30N 29°46' W 095°05'  

Dump ship's entire track history